Regional Weather Roundup
Issued by NWS Columbia, SC

Home | Current Version | Previous Version | Text Only | Print | Product List | Glossary On
Versions: 1 2 3 4 5 6 7 8 9 10 11 12 13 14 15 16 17 18 19 20 21 22 23 24 25 26 27 28 29 30 31 32 33 34 35 36 37 38 39 40 41 42 43 44 45 46 47 48 49 50
000
ASUS42 KCAE 010410
RWRCAE
REGIONAL WEATHER ROUNDUP
NATIONAL WEATHER SERVICE COLUMBIA SC
1200 AM EDT SUN MAY 01 2016

NOTE: "FAIR" INDICATES FEW OR NO CLOUDS BELOW 12,000 FEET WITH NO
SIGNIFICANT WEATHER AND/OR OBSTRUCTIONS TO VISIBILITY.

NOT ALL STATIONS ARE QUALITY CONTROLLED BY THE NATIONAL
WEATHER SERVICE. USE DATA WITH CAUTION...ESPECIALLY
DEWPOINT OBSERVATIONS.

SCZ001>056-GAZ040-063>065-077-010500-
...UPSTATE SOUTH CAROLINA...

CITY           SKY/WX    TMP DP  RH WIND       PRES   REMARKS
ANDERSON       RAIN      66  64  93 NE7       30.06S FOG
LIBERTY          N/A     64  63  97 E5        30.06S
SPARTANBURG    CLOUDY    63  61  94 NE5       30.06S
CLEMSON        LGT RAIN  66  63  90 E8        30.05F
GREENVILLE     HVY RAIN  64  62  93 NE6       30.09R FOG
GREENWOOD      CLOUDY    69  63  81 CALM      30.06R
GREER          RAIN      64  62  93 N5        30.08R
ROCK HILL        N/A    N/A N/A N/A MISG      30.07S
CHESTER        CLOUDY    66  64  94 E5        30.07S
LAURENS        CLOUDY    64  63  94 NE5       30.05S


...CENTRAL SOUTH CAROLINA...

CITY           SKY/WX    TMP DP  RH WIND       PRES   REMARKS
COLUMBIA APT   MOCLDY    74  66  76 SE10      30.05S
COLUMBIA OWENS MOCLDY    73  66  78 SE7       30.08R
MCENTIRE ANGB  CLOUDY    69  65  88 SE12      30.08R
ORANGEBURG     CLOUDY    73  67  81 SE8       30.08R
SUMTER SHAW    CLOUDY    69  64  83 SE8       30.07R
NEWBERRY       PTCLDY    72  63  73 SE9       30.07F
AIKEN          FAIR      70  63  78 SE10      30.08S
BARNWELL       MOCLDY    73  72  94 SE7       30.07R
CAMDEN         CLOUDY    68  64  88 SE9G15    30.09R
LANCASTER      CLOUDY    72  68  88 E10       30.07S
WINNSBORO      CLOUDY    72  64  78 SE10      30.06S


...EASTERN AND COASTAL SOUTH CAROLINA...

CITY           SKY/WX    TMP DP  RH WIND       PRES   REMARKS
MYRTLE BEACH   CLOUDY    68  59  73 E14       30.11F
N MYRTLE BCH   CLOUDY    68  63  84 E13G21    30.10F
CONWAY         CLOUDY    64  61  88 E3        30.11S
MARION         CLOUDY    63  59  88 E3        30.11S
HARTSVILLE     CLOUDY   N/A N/A N/A SE9       30.09S
FLORENCE       CLOUDY    67  62  84 SE12      30.11S
CHARLESTON APT PTCLDY    72  67  84 E9        30.07R
MOUNT PLEASANT FAIR      72  70  94 E5        30.08R
WALTERBORO     PTCLDY    72  72 100 E5        30.08R
BEAUFORT       MOCLDY    74  69  85 SE6       30.06R


...EASTERN GEORGIA...

CITY           SKY/WX    TMP DP  RH WIND       PRES   REMARKS
AUGUSTA BUSH F CLOUDY    74  67  78 SE9       30.03S
AUGUSTA DANIEL CLOUDY    75  65  70 SE9       30.05R
THOMSON        CLOUDY    75  69  80 SE3       30.08S
WASHINGTON     LGT RAIN  64  64 100 CALM      30.05R
CLAXTON        MOCLDY    74  72  93 CALM      30.04S
SYLVANIA       CLOUDY    73  71  91 SE3       30.06S
STATESBORO     MOCLDY    76  74  92 SE3       30.04S
SAVANNAH       MOCLDY    76  69  79 SE10      30.05R


...SOUTHERN NORTH CAROLINA...

CITY           SKY/WX    TMP DP  RH WIND       PRES   REMARKS
CHARLOTTE      MOCLDY    65  62  90 SE9G17    30.07F
MONROE           N/A     66  63  90 VRB3      30.08S
WADESBORO      CLOUDY    70  60  71 SE9       30.08F
ROCKINGHAM     CLOUDY    67  61  82 E13       30.09F
RUTHERFORDTON  LGT RAIN N/A N/A N/A NE6       30.09F
ASHEVILLE      TSTM      59  57  93 N3        30.11R FOG

$$



USA.gov is the U.S. government's official web portal to all federal, state and local government web resources and services.